Terminal Aerodrome Forecast
Issued by NWS Omaha/Valley, NE

Home | Current Version | Previous Version | Graphics & Text | Print | Product List | Glossary On
Versions: 1 2 3 4 5 6 7 8 9 10 11 12 13 14
000
FTUS43 KOAX 171720
TAFOFK
TAF
KOFK 171720Z 1718/1818 VRB06KT P6SM SKC
     FM181000 15010KT P6SM SKC
     FM181500 18016G26KT P6SM SKC=

USA.gov is the U.S. government's official web portal to all federal, state and local government web resources and services.